DMSP 5D-2 F13 DEB, 42315

Orbit data source: Space-Track

DMSP 5D-2 F13 DEB, 42315 is space debris in SSO originally from a launch on Fri, 24 Mar 1995 UTC launched from the Air Force Western Test Range (AFWTR). Debris objects in space refer to the collection of defunct objects orbiting the Earth. Examples of debris include non-operational satellites, rocket bodies, and fragments generated from explosions, collisions, or faulty payload assembly.

Loading next visibility...
Identifier
42315, 1995-015JH
Orbit
SSO
Country
Flag of USUS
Related business
Manufacturer
Unknown
Mission
Spacecraft
Bus & Motor
Unknown
Mass
Unknown
Launch date (UTC)
1995-03-24 (31 years ago)
Launch vehicle
Unknown
Launch site
Air Force Western Test Range (AFWTR)
Object type
Payload
Rocket body
Debris
Shape & HBR
Unknown shape, 0.1 m
Radar Cross Section
Small (<0.1 m²)

Expand to show TLE details & history
Last TLE update: 3 days ago

TLE from 3 days ago
0 DMSP 5D-2 F13 DEB
1 42315U 95015JH  25296.09713226  .00009574  00000-0  25168-2 0  9998
2 42315  98.5715 346.3058 0025260 175.0928 185.0518 14.49128240533473
Epoch: 2025-10-23T02:19Z
TLE epoch observation values (Epoch: 2025-10-23T02:19:52.227Z)
Latitude
0.00006°
Longitude
-80.4231°
Altitude
749.342 km
Speed
7.471 km/s
True Right ascension
23h 05m 13s
True Declination
0° 00' 00"
Sunlit
Object was in full shadow at epoch
Visualization orbit readout
Latitude
Unknown
Longitude
Unknown
Altitude
Unknown
Speed
Unknown
Apparent Right ascension
Unknown
Apparent Declination
Unknown
Sunlit
N/A
Visualization observer readout
Local Sidereal Time
17:19:00
Azimuth
Unknown
Elevation
Unknown
Doppler factor
Unknown
Orbital elements
Apogee altitude
743.554 km
Perigee altitude
707.666 km
Semi-major axis
7,103.747 km
Eccentricity
0.00253
Inclination
98.5715°
RAAN
346.3058°
Arg. of periapsis
175.0928°
True anomaly
185.02639°
Mean anomaly
185.0518°
Eccentric anomaly
185.03909°
Mean motion
3.62503 °/min
Orbital period
99.31 mins
BSTAR
0.0025168
Loading maneuver chart data...
Computing Atmospheric mass density...

Documentation

Showing up to 5 results
|